This demonstration page uses our WeatherBlox Daily Observations layout. Learn more.

Left ArrowRight Arrow

39.95238, -75.16362

Hourly Observations for April 4, 2022

Temp ( °F °C ) Dew Point ( °F °C ) Humidity (%) Winds ( mph kmh ) Pressure ( in mb ) Visibility ( mi km ) Precip ( " mm )
12:54 am 00:54 Mostly Cloudy 45 7.2 28 -2.2 52 52 WNW 16 26 29.94 1014 10 16 0.00 0.00
4:54 am 04:54 Mostly Clear 42 5.6 27 -2.8 55 55 WNW 7 11 29.98 1015 10 16 0.00 0.00
5:54 am 05:54 Mostly Clear 41 5 27 -2.8 57 57 W 13 20 30.01 1016 10 16 0.00 0.00
6:54 am 06:54 Mostly Sunny 40 4.4 27 -2.8 60 60 W 10 17 30.04 1017 10 16 0.00 0.00
7:54 am 07:54 Partly Cloudy 41 5 28 -2.2 60 60 W 9 15 30.05 1018 10 16 0.00 0.00
8:54 am 08:54 Mostly Sunny 44 6.7 28 -2.2 53 53 NNW 9 15 30.05 1018 10 16 0.00 0.00
9:54 am 09:54 Mostly Sunny 47 8.3 28 -2.2 48 48 NNW 9 15 30.04 1017 10 16 0.00 0.00
10:54 am 10:54 Partly Cloudy 48 8.9 29 -1.7 48 48 NNW 14 22 30.06 1018 10 16 0.00 0.00
11:54 am 11:54 Mostly Cloudy 50 10 29 -1.7 44 44 NW 10 17 30.05 1018 10 16 0.00 0.00
12:54 pm 12:54 Mostly Cloudy 51 10.6 28 -2.2 41 41 WNW 8 13 30.04 1017 10 16 0.00 0.00
1:54 pm 13:54 Mostly Cloudy 54 12.2 29 -1.7 38 38 W 9 15 30.02 1017 10 16 0.00 0.00
2:54 pm 14:54 Cloudy 54 12.2 28 -2.2 37 37 WSW 10 17 30.01 1016 10 16 0.00 0.00
3:54 pm 15:54 Cloudy 54 12.2 28 -2.2 37 37 W 7 11 29.99 1016 10 16 0.00 0.00
4:54 pm 16:54 Cloudy 55 12.8 28 -2.2 35 35 W 10 17 29.99 1016 10 16 0.00 0.00
5:54 pm 17:54 Cloudy 54 12.2 28 -2.2 37 37 W 14 22 29.99 1016 10 16 0.00 0.00
6:54 pm 18:54 Mostly Cloudy 53 11.7 27 -2.8 37 37 WNW 12 19 29.99 1016 10 16 0.00 0.00
7:54 pm 19:54 Mostly Cloudy 53 11.7 26 -3.3 35 35 WNW 9 15 30.00 1016 10 16 0.00 0.00
8:54 pm 20:54 Cloudy 52 11.1 28 -2.2 40 40 W 7 11 30.02 1017 10 16 0.00 0.00
9:54 pm 21:54 Mostly Cloudy 50 10 30 -1.1 46 46 WSW 7 11 30.03 1017 10 16 0.00 0.00
10:54 pm 22:54 Mostly Clear 49 9.4 30 -1.1 48 48 WSW 6 9 30.04 1017 10 16 0.00 0.00
11:54 pm 23:54 Mostly Clear 48 8.9 31 -0.6 52 52 SSE 3 6 30.04 1017 10 16 0.00 0.00

Powered by AerisWeather